sat.trackr.live / text

‹ back to catalog

PUNCH-NFI (SMEX 15A)

NORAD 63178 · 2025-047A

PAYLOAD ACTIVE UNKNOWN

§ Identity

Operator
Country
US
Launch date
2025-03-12
Launch site
AFWTR
Launch vehicle
Mass (kg)
RCS (m²)

External: N2YO · Heavens-Above · Gunter

§ Orbital elements

Epoch: 2026-09-22T12:06:07.966368Z

Period
97.64 min
Inclination
97.9582°
Eccentricity
0.0010499
Mean motion
14.74850425 rev/d
Perigee alt
638.3 km
Apogee alt
653.0 km
Semi-major
7,023.8 km
B*
5.5414e-5
RAAN
89.2961°
Arg perigee
199.3496°
Mean anomaly
160.7315°
Rev number
8,242

§ Raw data

PUNCH-NFI (SMEX 15A)1 63178U 25047A   26265.50425887  .00000321  00000+0  55414-4 0  99912 63178  97.9582  89.2961 0010499 199.3496 160.7315 14.74850425 82425

JSON: /api/v1/satellites/63178 · /tle

For live sub-satellite position, see the globe view (requires WebGL).

§ Visibility from observer

Set your observer location to see the next 7 days of passes ≥ 10°. The values pass through the URL so the page stays shareable.

No JS? Fill the form by hand. The geolocation button needs JavaScript.

§ Radio — SatNOGS DB

ModeDescriptionDownlinkUplink
FM S-band telemetry 2.216 GHz

1 transmitter · refreshed weekly from db.satnogs.org